This is the latest recevied weather packets stored in our database for station/object GW7110. If no packets are shown the sender has not sent any weather packets the latest 1 day(s).
| Time | Temp. | Humidity | Pressure | Rain* | Wind** | Luminosity | Snow |
|---|---|---|---|---|---|---|---|
| 1778025305 | 22.78° C | 56% | 29.9 hPa | 0 mm | 0 m/s | 19 W/m² | - |
| 1778025002 | 22.78° C | 55% | 29.9 hPa | 0 mm | 0 m/s | 18 W/m² | - |
| 1778024702 | 22.78° C | 55% | 29.9 hPa | 0 mm | 0 m/s | 19 W/m² | - |
| 1778024402 | 22.78° C | 54% | 29.9 hPa | 0 mm | 0 m/s | 29 W/m² | - |
| 1778024102 | 22.78° C | 54% | 29.9 hPa | 0 mm | 0.45 m/s, 199° | 40 W/m² | - |
| 1778023803 | 22.78° C | 54% | 29.9 hPa | 0 mm | 0 m/s | 49 W/m² | - |
| 1778023501 | 22.78° C | 54% | 29.9 hPa | 0 mm | 0.45 m/s, 208° | 43 W/m² | - |
| 1778023202 | 22.78° C | 53% | 29.9 hPa | 0 mm | 0.45 m/s, 251° | 46 W/m² | - |
| 1778022902 | 22.78° C | 53% | 29.9 hPa | 0 mm | 0 m/s | 45 W/m² | - |
| 1778022601 | 22.78° C | 53% | 29.9 hPa | 0 mm | 0.45 m/s, 282° | 38 W/m² | - |
| 1778022301 | 22.78° C | 52% | 29.9 hPa | 0 mm | 0 m/s | 37 W/m² | - |
| 1778022001 | 22.78° C | 51% | 29.9 hPa | 0 mm | 0.45 m/s, 217° | 42 W/m² | - |
| 1778021702 | 22.78° C | 51% | 29.9 hPa | 0 mm | 0 m/s | 37 W/m² | - |
| 1778021402 | 22.78° C | 51% | 29.9 hPa | 0 mm | 0 m/s | 61 W/m² | - |
| 1778021102 | 23.33° C | 50% | 29.9 hPa | 0 mm | 0 m/s | 55 W/m² | - |
| 1778020802 | 23.33° C | 50% | 29.9 hPa | 0 mm | 0.45 m/s, 211° | 65 W/m² | - |
| 1778020502 | 23.33° C | 50% | 29.9 hPa | 0 mm | 0.89 m/s, 276° | 54 W/m² | - |
| 1778020201 | 23.33° C | 51% | 29.9 hPa | 0 mm | 0 m/s | 60 W/m² | - |
| 1778019904 | 23.33° C | 50% | 29.9 hPa | 0 mm | 0.45 m/s, 233° | 51 W/m² | - |
| 1778019602 | 23.33° C | 49% | 29.9 hPa | 0 mm | 0.45 m/s, 205° | 65 W/m² | - |
| 1778019302 | 23.33° C | 49% | 29.9 hPa | 0 mm | 0.89 m/s, 274° | 110 W/m² | - |
| 1778019001 | 23.33° C | 50% | 29.9 hPa | 0 mm | 0.89 m/s, 233° | 119 W/m² | - |
| 1778018702 | 23.33° C | 49% | 29.9 hPa | 0 mm | 0.45 m/s, 195° | 124 W/m² | - |
| 1778018403 | 23.89° C | 49% | 29.9 hPa | 0 mm | 0.45 m/s, 177° | 138 W/m² | - |
| 1778018102 | 23.89° C | 48% | 29.9 hPa | 0 mm | 0.45 m/s, 237° | 171 W/m² | - |
* Rain latest hour (hover to see other rain measurements)
** Current wind speed in m/s (hover to see current wind gust speed)